Content
SEND FEEDBACK

Daily
Averages
Monthly
Summary
United States of America

GREENFIELD, MASSACHUSETTS


Home > North America > United States > Massachusetts
Elevation: 190 feet     Latitude: 42 37N     Longitude: 072 33W

WEATHER
 
SELECT A DAY
Number of Records: 212,516;   Date Range: 7/1/96 - 8/28/14
 
SHARE

PRINT THIS DATA

[ ← Previous Day ]
WEATHER ALMANAC - MARCH 12, 2014
[ Next Day → ]
[ °C ]   °F
Weather ElementAverageHighLow
Temperature36.2 °F42.1 °F (11:52 am)27 °F (11:52 pm)
Dewpoint32.3 °F36 °F (6:32 pm)23 °F (11:52 pm)
Humidity86.2 %96 % (6:32 pm)65 % (9:52 am)
Barometer29.34 in29.73 in (1:52 am)29.07 in (9:50 pm)
Wind Speed4.8 mph17.3 mph (11:52 pm)
Wind Gust25.3 mph (11:52 pm)
Weather ElementAverage
Visibility7 mi
Wind DirectionESE (126.8 °)

Weather ElementTotal
Precipitation0.87 in
Heating Degree Days30.5 (Base 65)
Averaged from 34 records on March 12, 2014
WEATHER CONDITIONS BREAKOUT
WIND DIRECTION BREAKOUT
WEATHER BY HOUR - MARCH 12, 2014
[ °C ]   °F
Local TimeTemperatureDewpointHumidityBarometerVisibilityWind DirectionWind SpeedGust SpeedPrecipitationEventsConditions
1:52 AM34.0 °F28.0 °F79 %29.73 in10.0 miNNW (330°)3.5 mphOvercast
2:52 AM33.1 °F28.0 °F82 %29.70 in10.0 miCalmOvercast
3:52 AM34.0 °F28.0 °F79 %29.68 in10.0 miCalmOvercast
4:52 AM34.0 °F28.0 °F79 %29.67 in9.0 miCalmOvercast
5:52 AM33.1 °F28.9 °F85 %29.67 in10.0 miCalmOvercast
6:52 AM33.1 °F28.9 °F85 %29.67 in10.0 miCalmOvercast
7:52 AM34.0 °F28.0 °F79 %29.67 in9.0 miCalmOvercast
8:52 AM36.0 °F28.9 °F76 %29.65 in10.0 miWNW (300°)3.5 mphMostly Cloudy
9:52 AM41.0 °F30.0 °F65 %29.62 in10.0 miNNE (20°)4.6 mphMostly Cloudy
10:52 AM41.0 °F32.0 °F70 %29.57 in10.0 miENE (60°)3.5 mph0.00 inRainLight Rain
11:52 AM42.1 °F33.1 °F70 %29.51 in10.0 miNNE (30°)4.6 mph0.00 inRainLight Rain
12:52 PM41.0 °F33.1 °F73 %29.47 in10.0 miNorth (350°)8.1 mph0.00 inOvercast
1:52 PM39.0 °F34.0 °F82 %29.42 in6.0 miNNE (30°)10.4 mph0.00 inRainLight Rain
2:52 PM37.9 °F35.1 °F89 %29.37 in7.0 miNorth (10°)4.6 mph0.00 inOvercast
3:03 PM37.9 °F35.1 °F89 %29.34 in6.0 miNNE (20°)6.9 mph0.00 inRainLight Rain
3:23 PM37.9 °F35.1 °F89 %29.32 in7.0 miVariable4.6 mph0.00 inRainLight Rain
3:52 PM37.9 °F34.0 °F86 %29.31 in7.0 miNNE (30°)6.9 mph0.00 inRainLight Rain
4:52 PM37.0 °F35.1 °F93 %29.25 in3.0 miNorth (10°)3.5 mph0.00 inRainRain
5:02 PM37.0 °F35.1 °F93 %29.22 in2.5 miCalm0.02 inRainLight Rain
5:14 PM37.0 °F35.1 °F93 %29.19 in3.0 miNNE (30°)5.8 mph0.04 inRainLight Rain
5:52 PM37.0 °F35.1 °F93 %29.18 in3.0 miNNE (20°)4.6 mph0.08 inRainLight Rain
6:19 PM37.0 °F35.1 °F93 %29.14 in2.5 miNNE (20°)3.5 mph0.05 inRainLight Rain
6:32 PM37.0 °F36.0 °F96 %29.12 in3.0 miCalm0.08 inRainRain
6:50 PM37.4 °F35.6 °F93 %29.10 in4.0 miCalm0.11 inRainRain
6:52 PM37.0 °F36.0 °F96 %29.12 in4.0 miCalm0.12 inRainRain
7:52 PM37.0 °F35.1 °F93 %29.10 in5.0 miNNW (340°)8.1 mph0.06 inRainLight Rain
8:52 PM36.0 °F34.0 °F93 %29.09 in2.0 miNNW (330°)8.1 mph0.06 inRainHeavy Rain
9:09 PM35.1 °F33.1 °F92 %29.08 in4.0 miNNW (340°)9.2 mph0.03 inRainRain
9:21 PM35.1 °F33.1 °F92 %29.08 in5.0 miNNW (340°)8.1 mph0.05 inRainLight Rain
9:50 PM35.6 °F33.8 °F93 %29.07 in9.0 miNorth (350°)5.8 mph0.07 inRainLight Rain
9:52 PM36.0 °F34.0 °F93 %29.10 in8.0 miNW (320°)8.1 mph0.07 inRainLight Rain
10:22 PM33.1 °F30.9 °F92 %29.07 in9.0 miNNW (340°)10.4 mph0.01 inRainLight Rain
10:52 PM30.9 °F28.9 °F92 %29.09 in10.0 miNorth (350°)10.4 mph0.02 inOvercast
11:52 PM27.0 °F23.0 °F85 %29.11 in10.0 miNNW (340°)17.3 mph25.3 mph0.00 inOvercast
Hourly data recorded from KORE, located miles away from Greenfield, Massachusetts







STORIES FROM OUR PARTNERS